Location: Unspecified
(0.0000°N, 0.0000°E)
Time: 19:39:26
(UTC+00:00)

CUTE-I - Visible Passes

Search period start: 18 May 2026 00:00
Search period end: 28 May 2026 00:00
Orbit: 805 x 817 km, 98.7° (Epoch: 18 May)

Date Brightness Start Highest point End Pass type
(mag) Time Alt. Az. Time Alt. Az. Time Alt. Az.
18 May ? 05:08:52 10° NE 05:12:50 21° ESE 05:16:47 10° SSE visible
19 May ? 04:48:17 10° E 04:49:26 11° ESE 04:50:35 10° ESE visible
19 May ? 19:03:55 10° SW 19:07:07 16° WSW 19:10:19 10° WNW visible
20 May ? 18:39:05 10° SSW 18:43:43 31° WSW 18:48:19 10° NW visible
21 May ? 18:15:05 10° S 18:20:17 59° WSW 18:25:31 10° NNW visible
22 May ? 05:14:29 10° NE 05:18:46 25° ESE 05:23:02 10° SSE visible
23 May ? 04:53:02 10° ENE 04:55:22 13° ESE 04:57:41 10° SE visible
23 May ? 19:10:28 10° SW 19:13:02 14° WSW 19:15:36 10° WNW visible
24 May ? 18:45:16 10° SSW 18:49:38 26° WSW 18:54:01 10° NW visible
25 May ? 18:21:06 10° S 18:26:13 50° WSW 18:31:21 10° NNW visible
26 May ? 05:20:09 10° NE 05:24:41 29° ESE 05:29:14 10° SSE visible
27 May ? 04:58:16 10° ENE 05:01:17 15° ESE 05:04:18 10° SE visible
27 May ? 19:17:21 10° WSW 19:18:58 11° WSW 19:20:34 10° W visible
